When you browse on this site, cookies collect data to enhance your experience and personalize the content and advertising you see.
Visit our Privacy Policy to learn more. By continuing to use the site, you agree to this use of cookies and data.
  • In Hungary
  • List of Countries
  • For 7 days
  • Water Temperature
  • Weather Map
  • News
  • Weather Widgets
  • user-avatar
    Login

    Hourly Weather Peski

    Today, 17 September, Tuesday

    Time Temperature Precipitation Wind Pressure Humidity
    00:00 +8°C° 0.1 mm 5 mps 731 mmHg 90%
    01:00 +8°C° 0.1 mm 4 mps 731 mmHg 89%
    02:00 +8°C° 0 mm 4 mps 731 mmHg 89%
    03:00 +8°C° 0.2 mm 4 mps 731 mmHg 90%
    04:00 +8°C° 0.2 mm 4 mps 731 mmHg 91%
    05:00 +7°C° 0.2 mm 4 mps 731 mmHg 91%
    06:00 +7°C° 0.8 mm 4 mps 731 mmHg 91%
    07:00 +7°C° 0.8 mm 4 mps 731 mmHg 91%
    08:00 +7°C° 0.8 mm 4 mps 731 mmHg 91%
    09:00 +8°C° 0.4 mm 4 mps 731 mmHg 88%
    10:00 +8°C° 0.4 mm 4 mps 732 mmHg 86%
    11:00 +10°C° 0.4 mm 4 mps 732 mmHg 83%
    12:00 +10°C° 0.5 mm 4 mps 732 mmHg 82%
    13:00 +10°C° 0.5 mm 4 mps 732 mmHg 80%
    14:00 +10°C° 0.5 mm 4 mps 732 mmHg 79%
    15:00 +10°C° 0.3 mm 4 mps 732 mmHg 81%
    16:00 +8°C° 0.3 mm 4 mps 732 mmHg 83%
    17:00 +9°C° 0.3 mm 3 mps 732 mmHg 85%
    18:00 +8°C° 0 mm 3 mps 732 mmHg 88%
    19:00 +7°C° 0 mm 3 mps 733 mmHg 90%
    20:00 +7°C° 0 mm 2 mps 733 mmHg 93%
    21:00 +6°C° 0 mm 2 mps 733 mmHg 94%
    22:00 +6°C° 0 mm 2 mps 732 mmHg 95%
    23:00 +6°C° 0 mm 2 mps 732 mmHg 95%

    Tomorrow, 18 September, Wednesday

    Time Temperature Precipitation Wind Pressure Humidity
    00:00 +5°C° 0 mm 2 mps 732 mmHg 96%
    01:00 +5°C° 0 mm 2 mps 733 mmHg 96%
    02:00 +4°C° 0 mm 2 mps 733 mmHg 97%
    03:00 +5°C° 0 mm 1 mps 733 mmHg 97%
    04:00 +5°C° 0 mm 1 mps 733 mmHg 97%
    05:00 +5°C° 0 mm 1 mps 732 mmHg 97%
    06:00 +6°C° 0 mm 1 mps 733 mmHg 94%
    07:00 +7°C° 0 mm 1 mps 733 mmHg 91%
    08:00 +8°C° 0 mm 1 mps 733 mmHg 87%
    09:00 +10°C° 0.1 mm 1 mps 733 mmHg 82%
    10:00 +10°C° 0.1 mm 0 mps 733 mmHg 77%
    11:00 +11°C° 0.1 mm 0 mps 733 mmHg 72%
    12:00 +12°C° 0.2 mm 1 mps 733 mmHg 72%
    13:00 +12°C° 0.2 mm 1 mps 733 mmHg 72%
    14:00 +12°C° 0.2 mm 2 mps 733 mmHg 72%
    15:00 +10°C° 0.1 mm 2 mps 733 mmHg 76%
    16:00 +10°C° 0.1 mm 2 mps 733 mmHg 81%
    17:00 +10°C° 0.1 mm 1 mps 734 mmHg 85%
    18:00 +8°C° 0 mm 2 mps 734 mmHg 88%
    19:00 +7°C° 0 mm 2 mps 734 mmHg 92%
    20:00 +6°C° 0 mm 2 mps 735 mmHg 95%
    21:00 +5°C° 0 mm 2 mps 735 mmHg 96%
    22:00 +5°C° 0 mm 2 mps 735 mmHg 96%
    23:00 +4°C° 0 mm 3 mps 736 mmHg 97%

    Day after tomorrow, 19 September, Thursday

    Time Temperature Precipitation Wind Pressure Humidity
    00:00 +4°C° 0 mm 3 mps 736 mmHg 97%
    01:00 +4°C° 0 mm 3 mps 737 mmHg 96%
    02:00 +4°C° 0 mm 4 mps 737 mmHg 96%
    03:00 +5°C° 0 mm 3 mps 738 mmHg 95%
    04:00 +5°C° 0 mm 3 mps 738 mmHg 94%
    05:00 +5°C° 0 mm 3 mps 739 mmHg 93%
    06:00 +5°C° 0.3 mm 3 mps 739 mmHg 92%
    07:00 +5°C° 0.3 mm 3 mps 740 mmHg 91%
    08:00 +5°C° 0.3 mm 3 mps 740 mmHg 90%
    09:00 +7°C° 0.1 mm 3 mps 741 mmHg 85%
    10:00 +7°C° 0.1 mm 3 mps 741 mmHg 80%
    11:00 +8°C° 0.1 mm 3 mps 742 mmHg 75%
    12:00 +8°C° 0.1 mm 3 mps 742 mmHg 72%
    13:00 +8°C° 0.1 mm 3 mps 743 mmHg 70%
    14:00 +8°C° 0.1 mm 3 mps 743 mmHg 67%
    15:00 +7°C° 0 mm 3 mps 743 mmHg 69%
    16:00 +7°C° 0 mm 2 mps 744 mmHg 72%
    17:00 +6°C° 0 mm 2 mps 744 mmHg 74%
    18:00 +6°C° 0 mm 1 mps 744 mmHg 76%
    19:00 +5°C° 0 mm 1 mps 744 mmHg 78%
    20:00 +4°C° 0 mm 1 mps 744 mmHg 80%
    21:00 +4°C° 0 mm 1 mps 745 mmHg 81%
    22:00 +3°C° 0 mm 1 mps 745 mmHg 82%
    23:00 +3°C° 0 mm 1 mps 745 mmHg 82%

    20 September, Friday

    Time Temperature Precipitation Wind Pressure Humidity
    00:00 +3°C° 0 mm 1 mps 745 mmHg 85%
    01:00 +2°C° 0 mm 1 mps 745 mmHg 88%
    02:00 +2°C° 0 mm 1 mps 745 mmHg 91%
    03:00 +2°C° 0 mm 1 mps 745 mmHg 92%
    04:00 +1°C° 0 mm 1 mps 745 mmHg 93%
    05:00 +1°C° 0 mm 1 mps 745 mmHg 94%
    06:00 +2°C° 0 mm 1 mps 745 mmHg 89%
    07:00 +4°C° 0 mm 1 mps 745 mmHg 83%
    08:00 +4°C° 0 mm 2 mps 745 mmHg 77%
    09:00 +5°C° 0 mm 2 mps 745 mmHg 71%
    10:00 +7°C° 0 mm 2 mps 746 mmHg 64%
    11:00 +8°C° 0 mm 2 mps 746 mmHg 58%
    12:00 +8°C° 0.1 mm 2 mps 746 mmHg 57%
    13:00 +8°C° 0.1 mm 2 mps 746 mmHg 56%
    14:00 +8°C° 0.1 mm 2 mps 746 mmHg 55%
    15:00 +7°C° 0 mm 2 mps 746 mmHg 59%
    16:00 +6°C° 0 mm 2 mps 746 mmHg 63%
    17:00 +6°C° 0 mm 1 mps 746 mmHg 67%
    18:00 +5°C° 0 mm 1 mps 746 mmHg 71%
    19:00 +4°C° 0 mm 1 mps 747 mmHg 75%
    20:00 +2°C° 0 mm 2 mps 747 mmHg 79%
    21:00 +2°C° 0 mm 2 mps 747 mmHg 82%
    22:00 +1°C° 0 mm 2 mps 748 mmHg 85%
    23:00 +1°C° 0 mm 2 mps 748 mmHg 88%

    21 September, Saturday

    Time Temperature Precipitation Wind Pressure Humidity
    00:00 +1°C° 0 mm 2 mps 748 mmHg 85%
    01:00 +1°C° 0 mm 2 mps 748 mmHg 82%
    02:00 -1°C° 0 mm 2 mps 748 mmHg 80%
    03:00 -1°C° 0 mm 2 mps 748 mmHg 82%
    04:00 -2°C° 0 mm 2 mps 749 mmHg 85%
    05:00 -2°C° 0 mm 2 mps 749 mmHg 88%
    06:00 -1°C° 0 mm 2 mps 749 mmHg 83%
    07:00 +2°C° 0 mm 2 mps 749 mmHg 79%
    08:00 +2°C° 0 mm 3 mps 749 mmHg 74%
    09:00 +3°C° 0 mm 3 mps 750 mmHg 69%
    10:00 +4°C° 0 mm 3 mps 750 mmHg 65%
    11:00 +7°C° 0 mm 3 mps 750 mmHg 60%
    12:00 +7°C° 0 mm 3 mps 750 mmHg 56%
    13:00 +8°C° 0 mm 3 mps 750 mmHg 53%
    14:00 +8°C° 0 mm 3 mps 749 mmHg 50%
    15:00 +7°C° 0 mm 3 mps 750 mmHg 56%
    16:00 +6°C° 0 mm 2 mps 750 mmHg 61%
    17:00 +5°C° 0 mm 2 mps 750 mmHg 67%
    18:00 +4°C° 0 mm 2 mps 750 mmHg 73%
    19:00 +3°C° 0 mm 2 mps 750 mmHg 79%
    20:00 +2°C° 0 mm 2 mps 750 mmHg 85%
    21:00 +2°C° 0 mm 2 mps 750 mmHg 88%
    22:00 +2°C° 0 mm 2 mps 750 mmHg 90%
    23:00 +2°C° 0 mm 2 mps 750 mmHg 92%

    22 September, Sunday

    Time Temperature Precipitation Wind Pressure Humidity
    00:00 +2°C° 0 mm 2 mps 750 mmHg 92%
    01:00 +1°C° 0 mm 2 mps 750 mmHg 93%
    02:00 +1°C° 0 mm 2 mps 750 mmHg 93%
    03:00 +2°C° 0 mm 2 mps 750 mmHg 93%
    04:00 +2°C° 0 mm 2 mps 750 mmHg 92%
    05:00 +2°C° 0 mm 2 mps 750 mmHg 91%
    06:00 +3°C° 0 mm 2 mps 750 mmHg 89%
    07:00 +4°C° 0 mm 2 mps 749 mmHg 87%
    08:00 +5°C° 0 mm 2 mps 749 mmHg 84%
    09:00 +5°C° 0.2 mm 2 mps 749 mmHg 87%
    10:00 +5°C° 0.2 mm 2 mps 749 mmHg 90%
    11:00 +4°C° 0.2 mm 3 mps 748 mmHg 93%
    12:00 +4°C° 0.1 mm 3 mps 748 mmHg 93%
    13:00 +4°C° 0.1 mm 3 mps 748 mmHg 93%
    14:00 +5°C° 0.1 mm 2 mps 748 mmHg 94%
    15:00 +5°C° 0.2 mm 2 mps 747 mmHg 95%
    16:00 +5°C° 0.2 mm 2 mps 747 mmHg 96%
    17:00 +5°C° 0.2 mm 2 mps 747 mmHg 97%
    18:00 +6°C° 0 mm 2 mps 747 mmHg 97%
    19:00 +6°C° 0 mm 2 mps 747 mmHg 97%
    20:00 +6°C° 0 mm 2 mps 748 mmHg 98%
    21:00 +7°C° 0 mm 2 mps 748 mmHg 98%
    22:00 +8°C° 0 mm 2 mps 748 mmHg 97%
    23:00 +8°C° 0 mm 2 mps 748 mmHg 97%
    Show more